Find OneWeb SL0616

NORAD ID: 55157 Int'l Des: 2023-004 Owner: ONEWEBN Country: UK Constellation: oneweb operational
LEOCIRCULARPOLARONEWEB_TYPE

リアルタイム位置

3D地球を読み込み中...

OneWeb SL0616について

説明を読み込み中...

次回通過

Passes for default location (London). Set your location on the main map for personalized predictions.

高度履歴

Loading altitude history...

軌道要素

1 55157U 23004T 26127.21343651 .00000079 00000-0 16963-3 0 9999
2 55157 87.9174 14.0118 0002529 64.8796 295.2598 13.17650190162309
Epoch: May 7, 2026 • Age: 10 hours

現在のステータス

高度 1196.4 km
速度 7.26 km/s
衛星直下点 10.98°N, 101.72°E
打ち上げ日 Jan 10, 2023
運用期間 3.3 years
タイプ internet

技術仕様

分類 Payload
質量 148.00 kg
乾燥質量 140.00 kg
総質量 148.00 kg
長さ 1.30 m
直径 1.00 m
スパン 5.00 m
形状 Trapezoid+2 pan
製造者 ONEWUS
バスタイプ ARROW
フェーズステータス In Orbit
所有者/国 ONEWEBN/UK

Most Searched